Regional Weather Roundup
Issued by NWS

Home | Current Version | Previous Version | Graphics & Text | Print | Product List | Glossary On
Versions: 1 2 3 4 5 6 7 8 9 10 11 12 13 14 15 16 17 18 19 20 21 22 23 24 25 26 27 28 29 30 31 32 33 34 35 36 37 38 39 40 41 42 43 44 45 46 47 48 49 50
000
ASUS43 KIND 292359
RWRIN

WEATHER ROUNDUP FOR INDIANA
NATIONAL WEATHER SERVICE INDIANAPOLIS IN
800 PM EDT SAT AUG 29 2015

NOTE: "FAIR" INDICATES FEW OR NO CLOUDS BELOW 12,000 FEET WITH NO
SIGNIFICANT WEATHER AND/OR OBSTRUCTIONS TO VISIBILITY.

* - STATION DOES NOT REPORT WEATHER SUCH AS PRECIPITATION OR FOG.

+ - STATION NOT QUALITY CONTROLLED BY THE NATIONAL WEATHER SERVICE.
    USE DATA WITH CAUTION...ESPECIALLY DEWPOINT AND RELATIVE
    HUMIDITY OBSERVATIONS.

INZ001>003-010>013-019-020-300100-
NORTHWEST INDIANA

CITY           SKY/WX    TMP DP  RH WIND       PRES   REMARKS
GARY /AIRPORT/ CLOUDY    72  66  83 CALM      30.01R

$$

LMZ046-743>745-300100-
SOUTHERN LAKE MICHIGAN

STATION/POSITION TIME  TEMP    WIND        PRES    WAVE
                       AIR SEA DIR/SP/G            HT
                 (UTC) (F)     (DEG/KT/KT) (MB)    (FT)
BURNS HARBOR     2300   73     180/  3/  7 1016.3S
MICHIGAN CITY    2300   71     100/  3/  5   N/A
5NW MICH CITY    2300   71 71  150/  4/  6   N/A     0

$$

INZ004-005-014>016-021>024-300100-
NORTH CENTRAL INDIANA

CITY           SKY/WX    TMP DP  RH WIND       PRES   REMARKS
GOSHEN         CLOUDY    69  67  93 E7        30.04S FOG
6HR MIN TEMP:  69; 6HR MAX TEMP:  71; 6HR PCP:  0.20;

SOUTH BEND     CLOUDY    69  68  96 SE9       30.02F FOG
6HR MIN TEMP:  68; 6HR MAX TEMP:  71; 6HR PCP:  0.11;


$$

INZ006>009-017-018-025>027-300100-
NORTHEAST INDIANA

CITY           SKY/WX    TMP DP  RH WIND       PRES   REMARKS
ANGOLA *+      CLOUDY    72  63  73 CALM      30.06R
FORT WAYNE     CLOUDY    74  70  87 CALM      30.04S
6HR MIN TEMP:  74; 6HR MAX TEMP:  79; 6HR PCP: TRACE;


$$

INZ028-029-035-036-043>045-051>053-300100-
WEST CENTRAL INDIANA

CITY           SKY/WX    TMP DP  RH WIND       PRES   REMARKS
CRAWFORDSVL +  CLOUDY    73  65  76 S5        30.02S
6HR MIN TEMP:  73; 6HR MAX TEMP:  80;

GREENCASTLE +  CLOUDY    73  64  73 S3        30.04S
LAFAYETTE      CLOUDY    74  69  85 S6        30.00S
6HR MIN TEMP:  74; 6HR MAX TEMP:  80; 6HR PCP: TRACE;

TERRE HAUTE    CLOUDY    78  65  63 S6        30.02R
6HR MIN TEMP:  78; 6HR MAX TEMP:  83;


$$

INZ030>032-037>040-046>048-054>057-064-065-300100-
CENTRAL INDIANA

CITY           SKY/WX    TMP DP  RH WIND       PRES   REMARKS
GREENWOOD *+   CLOUDY    77  63  61 SW3       30.04S
INDIANAPOLIS   CLOUDY    77  66  68 S6        30.02S
6HR MIN TEMP:  77; 6HR MAX TEMP:  82; 6HR PCP: TRACE;

-EAGLE CREEK   CLOUDY    78  67  68 S5        30.02S
6HR MIN TEMP:  78; 6HR MAX TEMP:  81;

KOKOMO *+      CLOUDY    75  66  73 S3        30.04R
6HR MIN TEMP:  75; 6HR MAX TEMP:  81;

MT COMFORT *+  CLOUDY    77  66  69 S3        30.04S
SHELBYVILLE    CLOUDY    78  67  68 S5        30.03S
6HR MIN TEMP:  78; 6HR MAX TEMP:  85;


$$

INZ033-034-041-042-049-050-058-059-300100-
EAST CENTRAL INDIANA

CITY           SKY/WX    TMP DP  RH WIND       PRES   REMARKS
MUNCIE         CLOUDY    76  66  71 SW3       30.04S
6HR MIN TEMP:  76; 6HR MAX TEMP:  80; 6HR PCP: TRACE;


$$

INZ060-061-067>069-081>083-085>088-300100-
SOUTHWEST INDIANA

CITY           SKY/WX    TMP DP  RH WIND       PRES   REMARKS
EVANSVILLE     MOCLDY    81  70  69 CALM      30.02S
6HR MIN TEMP:  81; 6HR MAX TEMP:  86; 6HR PCP: TRACE;

HUNTINGBURG *+ MOCLDY    79  70  73 CALM      30.03S
6HR MIN TEMP:  79; 6HR MAX TEMP:  88;


$$

INZ062-063-066-070>080-084-089>092-300100-
SOUTH CENTRAL AND SOUTHEAST INDIANA

CITY           SKY/WX    TMP DP  RH WIND       PRES   REMARKS
BLOOMINGTON    CLOUDY    76  68  76 S3        30.04S
6HR MIN TEMP:  76; 6HR MAX TEMP:  82; 6HR PCP: TRACE;

MADISON *+     MOCLDY    77  70  78 CALM      30.07S
SEYMOUR +      CLOUDY    79  70  73 CALM      30.03S

$$




USA.gov is the U.S. government's official web portal to all federal, state and local government web resources and services.